Lid_Strength_Index
-0 -0 -0 -0 0 -0 -0 1 2 2 2 2 2 2 2 2 3 3 5 4 7 10 9 7 7 8 8 8 11 9 10 11 12 14 14 17 17 16 16 15 16 17 18 18 18 20 19 13 13 15 14 14 14 13
-0 -0 -0 -0 -0 -0 0 1 2 2 2 2 2 2 3 3 3 3 6 3 4 8 8 5 5 3 4 5 7 8 9 11 10 13 14 14 16 15 15 18 14 16 15 17 15 16 13 12 13 12 13 14 15 14
-0 -0 -0 -0 -0 -0 0 1 2 3 3 2 2 2 3 3 3 3 5 5 6 9 8 6 7 4 2 3 4 9 9 9 10 10 12 13 15 15 18 17 16 15 12 15 15 14 14 13 12 13 13 14 13 13
-0 -0 -0 -0 -0 -0 0 1 1 3 3 3 3 2 3 3 4 3 6 5 5 7 11 9 3 5 3 3 4 4 7 8 8 10 12 14 15 13 16 14 15 14 13 14 15 13 13 13 13 13 13 13 13 13
-0 -0 -0 -0 -0 -0 0 1 1 2 3 3 3 2 2 3 3 4 5 5 4 8 11 10 6 6 4 4 5 4 6 7 10 11 12 13 12 12 13 13 14 12 14 15 16 12 14 13 13 12 13 13 12 12
1 -0 -0 -0 -0 -0 0 1 1 2 3 3 3 2 2 3 3 6 10 6 4 5 11 13 10 8 5 5 6 6 7 8 9 11 12 10 10 11 14 15 12 11 11 11 13 10 12 12 12 11 11 11 11 11
1 0 -0 -0 0 0 0 1 1 1 2 2 2 2 3 3 5 8 9 7 4 5 10 13 12 10 8 8 8 8 7 9 10 11 12 12 12 12 14 16 13 10 10 12 11 11 13 12 13 11 11 10 10 10
2 1 0 -0 -0 0 0 0 0 1 1 1 2 3 3 3 4 7 6 4 4 8 9 13 13 11 8 11 12 9 11 10 10 12 12 12 12 13 16 13 11 10 11 11 11 11 11 11 11 11 10 10 11 11
3 2 1 1 0 -0 0 0 0 0 1 1 2 4 6 8 8 8 4 4 5 8 12 12 14 15 9 11 11 11 10 13 10 12 12 12 13 15 13 12 12 12 12 12 11 11 11 11 11 11 10 10 11 11
4 3 2 2 1 0 0 0 0 0 0 1 5 9 12 9 4 4 7 9 9 8 9 12 11 13 10 12 12 12 12 13 15 13 12 13 14 11 11 10 10 10 11 10 12 12 12 12 11 10 10 10 10 11
5 4 3 2 2 1 0 0 0 0 1 6 9 13 7 5 8 11 12 12 12 12 10 10 11 12 9 13 13 12 14 13 16 14 14 15 15 12 10 11 11 11 11 11 11 11 10 10 10 11 11 11 11 11
6 5 4 3 2 1 1 0 0 4 5 5 5 4 6 9 11 13 14 12 12 13 10 11 11 10 10 10 12 12 14 13 16 13 15 16 14 11 11 12 12 11 11 11 11 11 10 10 10 11 11 11 11 10
6 6 5 4 3 2 1 1 0 0 1 4 6 8 10 12 15 14 17 14 14 12 11 11 12 11 11 11 13 13 15 16 13 17 16 14 12 11 12 12 12 12 12 12 12 11 11 11 10 10 10 10 10 10
6 6 5 5 4 2 2 1 1 1 4 9 9 15 14 16 12 10 11 11 11 11 11 11 12 11 12 12 13 15 13 13 19 20 16 13 11 11 11 11 11 11 12 11 12 11 12 12 11 10 10 10 10 11
7 6 6 5 4 3 3 2 1 4 6 9 9 15 14 11 12 12 12 11 10 9 10 11 11 11 12 14 12 13 16 18 15 17 14 12 10 10 11 10 11 11 13 11 10 10 10 10 10 10 10 10 10 10
6 6 7 5 5 4 3 3 4 5 7 8 9 12 12 14 16 15 14 12 9 12 10 11 11 14 13 12 12 15 14 15 14 12 12 9 9 9 9 9 9 9 9 9 9 10 10 10 10 10 10 11 13 10
6 9 6 6 6 5 4 6 7 8 9 8 14 15 14 14 16 16 12 10 9 11 13 11 14 13 11 13 12 11 14 12 13 9 8 9 9 9 9 9 8 8 9 9 9 9 10 9 10 11 12 12 12 11
10 8 6 6 6 7 8 6 9 10 10 10 13 14 12 13 15 13 11 8 9 9 9 11 10 12 16 13 14 12 9 9 11 8 10 9 8 8 8 8 8 8 8 8 9 9 9 10 10 11 11 10 10 10
9 8 7 6 7 9 11 9 9 12 12 13 12 11 11 12 10 10 11 9 8 7 9 11 11 13 12 12 13 9 13 12 10 11 11 8 7 8 8 7 8 8 8 9 9 9 9 9 9 10 9 10 10 10
6 6 6 6 6 11 11 10 8 11 13 12 12 11 11 11 11 11 12 11 8 7 10 12 12 12 11 10 10 11 11 10 8 10 11 8 7 7 8 9 9 8 8 8 8 10 10 10 9 9 9 10 10 10
8 8 6 6 8 10 11 11 11 11 12 12 12 11 12 9 9 12 11 10 13 12 12 10 11 12 9 10 10 9 9 8 10 9 10 11 9 8 8 9 9 10 10 10 10 11 10 10 8 8 10 10 10 9
10 6 7 7 10 11 12 11 12 11 12 12 12 12 13 12 10 9 8 9 11 11 10 10 10 9 9 8 9 8 7 7 8 9 10 9 10 10 8 9 9 9 9 9 10 10 9 9 9 9 8 9 9 9
8 8 9 9 12 14 15 11 13 12 13 12 12 12 14 15 13 11 13 12 12 11 11 11 8 6 8 7 5 5 5 6 6 6 7 7 7 8 8 8 7 7 8 7 7 7 8 9 10 10 10 10 10 10
8 10 14 13 12 18 12 15 12 13 13 13 13 14 13 14 12 13 14 13 10 9 10 9 10 8 8 7 8 7 7 6 6 7 6 6 7 6 6 7 7 7 6 6 6 7 7 7 9 9 9 9 10 10
13 17 15 17 15 15 16 15 15 14 17 15 15 16 15 12 16 17 15 14 13 12 12 10 9 10 11 10 9 8 8 8 8 7 7 6 7 6 6 6 6 5 7 6 6 6 6 7 7 8 8 9 10 10
20 19 16 19 19 17 16 18 18 18 17 18 16 14 14 17 18 19 15 19 14 14 13 12 12 12 12 11 12 12 11 9 7 8 8 6 5 6 6 7 8 7 6 6 5 5 6 6 6 7 8 8 9 10
20 20 14 11 12 12 16 14 13 15 19 20 18 19 19 22 22 19 17 15 15 15 13 13 13 13 13 13 12 12 11 10 10 10 9 7 7 6 6 6 7 7 6 6 5 5 5 6 6 7 8 8 9 9
15 15 18 17 15 13 17 16 16 17 18 14 15 19 20 20 20 18 16 15 15 14 14 14 14 14 15 15 16 16 15 15 14 12 11 11 9 8 7 7 7 7 7 6 6 6 7 6 6 7 7 8 9 8
18 15 12 16 15 14 16 17 16 13 13 14 17 19 18 14 16 17 16 14 14 15 19 19 19 23 21 20 21 21 20 19 19 20 20 17 13 12 9 7 7 7 7 7 6 6 6 6 6 6 6 7 7 7
17 13 15 17 17 16 15 14 15 15 13 13 13 14 15 16 16 16 15 15 16 18 19 22 24 23 23 23 24 22 25 21 22 20 21 21 19 16 12 10 8 7 7 7 8 8 8 9 7 7 6 7 7 8
12 13 16 15 17 16 15 14 14 14 15 17 17 17 17 18 17 16 17 19 19 21 20 22 22 24 21 27 27 27 24 21 19 16 16 18 22 23 20 16 11 6 6 7 8 8 9 10 9 9 9 9 8 8
14 16 16 17 17 16 17 19 19 18 18 19 20 20 19 19 19 18 17 21 20 21 23 26 23 22 24 27 28 27 24 24 24 23 21 22 23 21 18 15 12 8 6 7 7 7 8 9 9 10 10 10 10 10
16 15 16 17 18 18 17 19 19 20 20 21 21 20 20 19 20 18 18 21 19 19 22 23 25 27 26 25 22 23 24 25 24 19 20 20 21 20 21 18 13 11 9 8 9 9 9 9 10 10 10 10 10 11